Location: Asheville, NC
(35.6000°N, 82.5500°W)
Time: 10:54:34
(UTC-04:00)

Vanguard 1 Rocket - Pass Details

Date: 28 January 2018
Orbit: 652 x 4225 km, 34.3° (Epoch: 24 May)

Event Time Altitude Azimuth Distance (km) Brightness Sun altitude
Exits shadow 01:48:15 23° 127° (SE) 5,558 11.2 -67.4°
Drops below altitude 10° 01:57:54 10° 96° (E) 5,801 11.6 -66.0°
Sets 02:02:48 0° 83° (E) 6,297 12.0 -65.2°
